Beidou DW 12

operational
NORAD ID: 38250 Int'l Des: 2012-018 Owner: CNSA Country: CN Constellation: BeiDou
MEOCIRCULAR

Über Beidou DW 12

Beschreibung wird geladen...

Live-Position

3D-Globus wird geladen...

Nächste Überflüge

Höhenverlauf

Altitude vs Time

uPlot chart will show altitude changes over time

Zweizeiliger Elementsatz

1 38250U 12018A 25258.26613848 -.00000059 00000-0 00000+0 0 9994
2 38250 55.9917 314.1323 0023713 266.8432 92.9498 1.86229679 90820
Epoch: 15. Sept. 2025 • Age: 32 hours

Aktueller Status

Höhe 21547.6 km
Geschwindigkeit 3.78 km/s
Subsatellitenpunkt 16.89°N, 81.8°W
Startdatum 29. Apr. 2012
Alter 13.3 years
Typ navigation

Technische Details

Klassifizierung Payload
Masse 2300.00 kg
Trockenmasse 1300.00 kg
Gesamtmasse 2300.00 kg
Länge 3.00 m
Durchmesser 1.70 m
Spannweite 18.00 m
Form Box + 2 Pan
Hersteller CAST
Bus-Typ DFH-3
Phasenstatus In Orbit
Besitzer/Staat CNSA/CN

Große Konstellationen

Loading constellations...